Weather History for Jackson, KY

Change the Weather History Date:

Thursday, May 23, 2013

  Actual Average Record
Temperature  
Mean Temperature 67 °F 66 °F  
Max Temperature 76 °F 76 °F 87 °F (1994)
Min Temperature 57 °F 56 °F 47 °F (2002)
Degree Days  
Heating Degree Days 0 2  
Month to date heating degree days 79 86  
Since 1 July heating degree days 4341 4207  
Cooling Degree Days 2 4  
Month to date cooling degree days 62 59  
Year to date cooling degree days 102 105  
Growing Degree Days 18 (Base 50)    
Moisture  
Dew Point 60 °F    
Average Humidity 75    
Maximum Humidity 100    
Minimum Humidity 50    
Precipitation  
Precipitation 0.06 in 0.17 in 1.22 in (2011)
Month to date precipitation 4.23 3.81  
Year to date precipitation 20.20 19.12  
Snow  
Snow 0.00 in 0.00 in - ()
Month to date snowfall 0.0 0.0  
Since 1 July snowfall 20.0 23.5  
Snow Depth 0.00 in    
Sea Level Pressure  
Sea Level Pressure 29.92 in    
Wind  
Wind Speed 4 mph (WNW)    
Max Wind Speed 17 mph    
Max Gust Speed 31 mph    
Visibility 6 miles    
Events Fog , Rain , Thunderstorm    
T = Trace of Precipitation, MM = Missing Value Source: NWS Daily Summary

Daily Weather History Graph

Daily Weather History Graph

Search for Another Location

Airport:

Trip Planner

Search our weather history database for the weather conditions in past years. The results will help you decide how hot, cold, wet, or windy it might be!

Date:

Astronomy

May. 23, 2013 Rise Set
Actual Time 6:17 AM EDT 8:42 PM EDT
Civil Twilight 5:47 AM EDT 9:12 PM EDT
Nautical Twilight 5:10 AM EDT 9:49 PM EDT
Astronomical Twilight 4:30 AM EDT 10:30 PM EDT
Moon 7:15 PM EDT (5/23) 4:59 AM EDT (5/23)
Length of Visible Light 15h 24m
Length of Day
14h 24m
Waxing Gibbous, 97% of the Moon is Illuminated
May 23
Waxing Gibbous
May 25
Full
May 31
Last Quarter
Jun 8
New
Jun 16
First Quarter

Hourly Weather History & Observations

Time (EDT) Temp. Dew Point Humidity Pressure Visibility Wind Dir Wind Speed Gust Speed Precip Events Conditions
12:04 AM 64.4 °F 62.6 °F 94% 29.91 in 2.5 mi Calm Calm - 0.05 in Rain , Thunderstorm Rain
12:13 AM 64.4 °F 62.6 °F 94% 29.91 in 5.0 mi Calm Calm - 0.07 in Rain , Thunderstorm Light Rain
12:31 AM 64.4 °F 62.6 °F 94% 29.91 in 10.0 mi Calm Calm - 0.07 in   Overcast
12:40 AM 64.4 °F 62.6 °F 94% 29.91 in 10.0 mi Calm Calm - 0.07 in   Mostly Cloudy
12:51 AM 64.4 °F 62.6 °F 94% 29.91 in 2.0 mi Calm Calm - 0.07 in   Mostly Cloudy
12:53 AM 64.0 °F 63.0 °F 96% 29.87 in 1.8 mi Calm Calm - 0.07 in   Mostly Cloudy
12:59 AM 64.4 °F 62.6 °F 94% 29.91 in 2.5 mi Calm Calm - N/A   Mostly Cloudy
1:06 AM 64.4 °F 62.6 °F 94% 29.91 in 3.0 mi Calm Calm - N/A   Overcast
1:16 AM 64.4 °F 62.6 °F 94% 29.91 in 8.0 mi Calm Calm - N/A   Overcast
1:42 AM 64.4 °F 62.6 °F 94% 29.90 in 10.0 mi Calm Calm - N/A   Overcast
1:53 AM 64.0 °F 63.0 °F 96% 29.86 in 10.0 mi Calm Calm - N/A   Mostly Cloudy
2:25 AM 64.4 °F 62.6 °F 94% 29.90 in 8.0 mi Calm Calm - N/A   Mostly Cloudy
2:38 AM 64.4 °F 62.6 °F 94% 29.89 in 8.0 mi Calm Calm - N/A   Mostly Cloudy
2:53 AM 64.0 °F 62.1 °F 93% 29.85 in 6.0 mi Calm Calm - N/A   Mostly Cloudy
3:11 AM 64.4 °F 62.6 °F 94% 29.89 in 1.8 mi Calm Calm - N/A   Overcast
3:19 AM 64.4 °F 62.6 °F 94% 29.89 in 1.2 mi Calm Calm - N/A   Overcast
3:53 AM 63.0 °F 62.1 °F 97% 29.85 in 0.5 mi Calm Calm - N/A Fog Fog
4:17 AM 62.6 °F 62.6 °F 100% 29.89 in 1.8 mi Calm Calm - N/A   Overcast
4:19 AM 62.6 °F 62.6 °F 100% 29.90 in 3.0 mi Calm Calm - N/A   Overcast
4:36 AM 62.6 °F 62.6 °F 100% 29.90 in 2.0 mi Calm Calm - N/A   Overcast
4:46 AM 62.6 °F 62.6 °F 100% 29.90 in 1.5 mi Calm Calm - N/A   Overcast
4:53 AM 63.0 °F 62.1 °F 97% 29.86 in 0.8 mi Calm Calm - N/A   Overcast
5:16 AM 62.6 °F 62.6 °F 100% 29.90 in 1.2 mi Calm Calm - N/A   Overcast
5:53 AM 63.0 °F 62.1 °F 97% 29.87 in 0.5 mi Calm Calm - N/A Fog Fog
6:03 AM 62.6 °F 62.6 °F 100% 29.91 in 1.8 mi Calm Calm - N/A   Overcast
6:13 AM 62.6 °F 62.6 °F 100% 29.92 in 0.8 mi Calm Calm - N/A   Mist
6:53 AM 63.0 °F 62.1 °F 97% 29.90 in 0.2 mi Calm Calm - N/A Fog Fog
7:27 AM 62.6 °F 62.6 °F 100% 29.93 in 1.2 mi Calm Calm - N/A   Overcast
7:39 AM 62.6 °F 62.6 °F 100% 29.94 in 0.5 mi Calm Calm - N/A Fog Fog
7:53 AM 63.0 °F 62.1 °F 97% 29.91 in 1.0 mi Calm Calm - N/A   Mist
8:07 AM 62.6 °F 62.6 °F 100% 29.94 in 2.0 mi Variable 3.5 mph - N/A   Overcast
8:19 AM 62.6 °F 62.6 °F 100% 29.94 in 4.0 mi Calm Calm - N/A   Overcast
8:53 AM 66.0 °F 63.0 °F 90% 29.91 in 10.0 mi Calm Calm - N/A   Mostly Cloudy
9:10 AM 66.2 °F 62.6 °F 88% 29.94 in 10.0 mi Calm Calm - N/A   Mostly Cloudy
9:53 AM 70.0 °F 64.0 °F 81% 29.91 in 10.0 mi Calm Calm - N/A   Mostly Cloudy
10:46 AM 69.8 °F 62.6 °F 78% 29.94 in 10.0 mi Calm Calm - N/A   Mostly Cloudy
10:53 AM 70.0 °F 63.0 °F 78% 29.91 in 10.0 mi Calm Calm - N/A   Mostly Cloudy
11:21 AM 71.6 °F 62.6 °F 73% 29.93 in 10.0 mi Calm Calm - N/A   Overcast
11:46 AM 71.6 °F 62.6 °F 73% 29.93 in 10.0 mi Variable 5.8 mph - N/A   Mostly Cloudy
11:53 AM 72.0 °F 62.1 °F 71% 29.89 in 10.0 mi WSW 5.8 mph - N/A   Mostly Cloudy
12:03 PM 73.4 °F 62.6 °F 69% 29.93 in 10.0 mi WSW 8.1 mph - N/A   Scattered Clouds
12:53 PM 70.0 °F 60.1 °F 71% 29.88 in 10.0 mi WNW 6.9 mph - N/A   Overcast
1:53 PM 75.0 °F 62.1 °F 64% 29.86 in 10.0 mi Calm Calm - N/A   Scattered Clouds
2:53 PM 73.0 °F 57.9 °F 59% 29.86 in 10.0 mi WNW 11.5 mph 20.7 mph N/A   Scattered Clouds
3:53 PM 75.0 °F 55.9 °F 51% 29.86 in 10.0 mi WNW 15.0 mph 24.2 mph N/A   Scattered Clouds
4:53 PM 68.0 °F 55.9 °F 65% 29.89 in 10.0 mi Variable 6.9 mph 17.3 mph N/A   Overcast
5:53 PM 68.0 °F 57.9 °F 70% 29.90 in 10.0 mi Variable 4.6 mph - N/A   Overcast
6:53 PM 64.9 °F 54.0 °F 68% 29.93 in 10.0 mi NW 15.0 mph 24.2 mph N/A   Overcast
7:30 PM 64.4 °F 53.6 °F 68% 29.96 in 10.0 mi NW 12.7 mph 19.6 mph N/A   Overcast
7:53 PM 63.0 °F 54.0 °F 72% 29.94 in 10.0 mi WNW 10.4 mph 17.3 mph N/A   Overcast
8:16 PM 62.6 °F 53.6 °F 72% 29.98 in 10.0 mi Calm Calm - N/A   Overcast
8:53 PM 62.1 °F 54.0 °F 75% 29.96 in 10.0 mi Variable 6.9 mph - N/A   Overcast
9:02 PM 62.6 °F 53.6 °F 72% 29.98 in 10.0 mi Variable 5.8 mph - N/A   Mostly Cloudy
9:18 PM 60.8 °F 53.6 °F 77% 29.99 in 10.0 mi Variable 3.5 mph - N/A   Mostly Cloudy
9:25 PM 60.8 °F 53.6 °F 77% 29.99 in 10.0 mi Variable 3.5 mph - N/A   Mostly Cloudy
9:53 PM 61.0 °F 54.0 °F 78% 29.96 in 10.0 mi West 5.8 mph - N/A   Overcast
10:53 PM 60.1 °F 53.1 °F 78% 29.98 in 10.0 mi Variable 3.5 mph - N/A   Overcast
11:07 PM 60.8 °F 53.6 °F 77% 30.00 in 10.0 mi West 5.8 mph - N/A   Overcast
11:53 PM 59.0 °F 54.0 °F 83% 29.99 in 10.0 mi Variable 4.6 mph - N/A   Overcast